TimeAKDT,TemperatureF,Dew PointF,Humidity,Sea Level PressureIn,VisibilityMPH,Wind Direction,Wind SpeedMPH,Gust SpeedMPH,PrecipitationIn,Events,Conditions,WindDirDegrees,DateUTC
12:01 AM,41.0,35.6,81,30.25,10.0,ESE,16.1,-,0.00,Rain,Light Rain,120,2013-03-30 08:01:00
12:36 AM,41.0,35.6,81,30.25,10.0,SE,13.8,-,0.01,Rain,Light Rain,130,2013-03-30 08:36:00
12:53 AM,41.0,35.1,79,30.25,9.0,SE,11.5,-,0.02,Rain,Light Rain,130,2013-03-30 08:53:00
1:53 AM,41.0,36.0,82,30.24,9.0,ESE,10.4,-,0.04,Rain,Light Rain,120,2013-03-30 09:53:00
2:53 AM,41.0,37.0,86,30.24,8.0,SE,9.2,-,0.04,Rain,Light Rain,130,2013-03-30 10:53:00
3:53 AM,39.9,37.9,93,30.24,6.0,SE,6.9,-,0.07,Rain,Rain,130,2013-03-30 11:53:00
4:53 AM,39.9,37.0,89,30.24,5.0,ESE,11.5,-,0.10,Rain,Rain,120,2013-03-30 12:53:00
5:53 AM,39.0,37.0,93,30.24,6.0,SE,9.2,-,0.12,Rain,Rain,140,2013-03-30 13:53:00
6:53 AM,37.9,37.0,97,30.25,8.0,East,9.2,-,0.10,Rain,Light Rain,100,2013-03-30 14:53:00
7:53 AM,37.9,37.0,97,30.26,5.0,East,8.1,-,0.09,Rain,Rain,100,2013-03-30 15:53:00
8:53 AM,39.0,37.9,96,30.26,10.0,East,8.1,-,0.04,Rain,Light Rain,100,2013-03-30 16:53:00
9:53 AM,41.0,37.9,89,30.27,10.0,ESE,9.2,-,0.00,Rain,Light Rain,120,2013-03-30 17:53:00
10:53 AM,43.0,39.0,86,30.28,9.0,SE,6.9,-,0.00,Rain,Light Rain,140,2013-03-30 18:53:00
11:53 AM,42.1,39.9,92,30.30,3.0,SE,5.8,-,0.01,Rain,Light Rain,140,2013-03-30 19:53:00
12:53 PM,43.0,42.1,97,30.31,4.0,South,3.5,-,0.02,Rain,Light Rain,180,2013-03-30 20:53:00
1:20 PM,42.8,42.8,100,30.31,2.5,Calm,Calm,-,0.01,Rain,Light Rain,0,2013-03-30 21:20:00
1:53 PM,43.0,42.1,97,30.32,2.0,Calm,Calm,-,0.03,Rain,Light Rain,0,2013-03-30 21:53:00
2:19 PM,44.6,42.8,93,30.33,3.0,Calm,Calm,-,0.01,Rain,Light Rain,0,2013-03-30 22:19:00
2:44 PM,44.6,42.8,93,30.33,3.0,Calm,Calm,-,0.02,Rain,Light Rain,0,2013-03-30 22:44:00
2:53 PM,44.1,44.1,100,30.33,3.0,Calm,Calm,-,0.02,Rain,Light Rain,0,2013-03-30 22:53:00
2:55 PM,44.6,44.6,100,30.33,2.0,Calm,Calm,-,0.00,Rain,Light Rain,0,2013-03-30 22:55:00
3:19 PM,44.6,42.8,93,30.33,2.0,Calm,Calm,-,0.02,Rain,Light Rain,0,2013-03-30 23:19:00
3:23 PM,42.8,42.8,100,30.33,2.0,Calm,Calm,-,0.02,Rain,Light Rain,0,2013-03-30 23:23:00
3:45 PM,42.8,42.8,100,30.33,1.5,SSW,4.6,-,0.03,Rain,Light Rain,200,2013-03-30 23:45:00
3:53 PM,43.0,43.0,100,30.34,1.5,Calm,Calm,-,0.04,Rain,Light Rain,0,2013-03-30 23:53:00
4:03 PM,42.8,42.8,100,30.33,1.5,South,3.5,-,0.01,Rain,Light Rain,190,2013-03-31 00:03:00
4:16 PM,42.8,42.8,100,30.34,2.5,SSW,5.8,-,0.01,Rain,Light Rain,200,2013-03-31 00:16:00
4:39 PM,42.8,42.8,100,30.34,5.0,SSW,4.6,-,0.01,,Overcast,200,2013-03-31 00:39:00
4:51 PM,42.8,42.8,100,30.34,2.5,SSW,5.8,-,0.01,,Overcast,200,2013-03-31 00:51:00
4:53 PM,43.0,43.0,100,30.34,2.5,SSW,4.6,-,0.01,,Overcast,200,2013-03-31 00:53:00
5:31 PM,42.8,42.8,100,30.34,2.5,West,4.6,-,0.01,,Overcast,270,2013-03-31 01:31:00
5:38 PM,42.8,42.8,100,30.34,3.0,WNW,5.8,-,0.01,,Overcast,290,2013-03-31 01:38:00
5:45 PM,42.8,42.8,100,30.34,2.0,WNW,8.1,-,0.01,,Overcast,300,2013-03-31 01:45:00
5:53 PM,41.0,41.0,100,30.35,3.0,NW,8.1,-,0.01,,Overcast,310,2013-03-31 01:53:00
6:40 PM,41.0,41.0,100,30.35,2.5,WNW,8.1,-,0.01,Rain,Light Rain,300,2013-03-31 02:40:00
6:53 PM,41.0,41.0,100,30.35,2.5,WNW,8.1,-,0.01,Rain,Light Rain,300,2013-03-31 02:53:00
7:00 PM,41.0,41.0,100,30.35,4.0,WNW,9.2,-,0.00,,Overcast,300,2013-03-31 03:00:00
7:12 PM,41.0,41.0,100,30.35,6.0,WNW,9.2,-,0.00,,Overcast,300,2013-03-31 03:12:00
7:53 PM,39.9,39.9,100,30.36,5.0,NW,10.4,-,0.02,Rain,Light Rain,320,2013-03-31 03:53:00
8:07 PM,39.2,39.2,100,30.36,6.0,NNW,10.4,-,N/A,,Overcast,330,2013-03-31 04:07:00
8:21 PM,39.2,39.2,100,30.36,10.0,NW,6.9,-,N/A,,Overcast,320,2013-03-31 04:21:00
8:53 PM,41.0,41.0,100,30.36,10.0,NNW,9.2,-,N/A,,Overcast,330,2013-03-31 04:53:00
9:53 PM,41.0,39.9,96,30.37,9.0,NNW,9.2,-,N/A,,Overcast,330,2013-03-31 05:53:00
10:53 PM,41.0,39.9,96,30.36,8.0,NNW,6.9,-,0.00,,Overcast,340,2013-03-31 06:53:00
11:31 PM,39.2,39.2,100,30.36,4.0,NW,6.9,-,0.00,Rain,Light Rain,320,2013-03-31 07:31:00
11:53 PM,39.9,39.9,100,30.36,7.0,NNW,5.8,-,0.00,,Overcast,340,2013-03-31 07:53:00